This demonstration page uses our WeatherBlox Daily Observations layout. Learn more.

Left ArrowRight Arrow

38.88101, -77.10428

Hourly Observations for November 16, 2021

Temp ( °F °C ) Dew Point ( °F °C ) Humidity (%) Winds ( mph kmh ) Pressure ( in mb ) Visibility ( mi km ) Precip ( " mm )
12:52 am 00:52 Mostly Cloudy 40 4.4 25 -3.9 55 55 SW 6 9 30.16 1021 10 16 0.00 0.00
1:52 am 01:52 Mostly Cloudy 39 3.9 25 -3.9 57 57 SW 3 6 30.16 1021 10 16 0.00 0.00
2:52 am 02:52 Partly Cloudy 37 2.8 25 -3.9 62 62 SW 6 9 30.17 1022 10 16 0.00 0.00
3:52 am 03:52 Cloudy 39 3.9 26 -3.3 60 60 W 7 11 30.18 1022 10 16 0.00 0.00
4:52 am 04:52 Mostly Cloudy 40 4.4 24 -4.4 53 53 W 7 11 30.19 1022 10 16 0.00 0.00
5:52 am 05:52 Cloudy 41 5 25 -3.9 53 53 W 7 11 30.19 1022 10 16 0.00 0.00
6:52 am 06:52 Mostly Cloudy 41 5 25 -3.9 53 53 Calm 30.20 1023 10 16 0.00 0.00
7:52 am 07:52 Mostly Cloudy 41 5 26 -3.3 55 55 S 5 7 30.23 1024 10 16 0.00 0.00
8:52 am 08:52 Mostly Sunny 43 6.1 27 -2.8 53 53 SSW 8 13 30.24 1024 10 16 0.00 0.00
9:52 am 09:52 Mostly Sunny 49 9.4 27 -2.8 43 43 SSW 6 9 30.24 1024 10 16 0.00 0.00
10:52 am 10:52 Mostly Sunny 50 10 26 -3.3 39 39 SSW 7 11 30.24 1024 10 16 0.00 0.00
11:52 am 11:52 Mostly Sunny 50 10 31 -0.6 48 48 S 9 15 30.22 1023 10 16 0.00 0.00
12:52 pm 12:52 Sunny 52 11.1 31 -0.6 45 45 S 7 11 30.20 1023 10 16 0.00 0.00
1:52 pm 13:52 Mostly Sunny 53 11.7 31 -0.6 43 43 S 7 11 30.17 1022 10 16 0.00 0.00
2:52 pm 14:52 Partly Cloudy 54 12.2 33 0.6 45 45 SSE 9 15 30.17 1022 10 16 0.00 0.00
3:52 pm 15:52 Cloudy 53 11.7 34 1.1 48 48 S 7 11 30.19 1022 10 16 0.00 0.00
4:52 pm 16:52 Mostly Cloudy 51 10.6 31 -0.6 46 46 SSW 7 11 30.21 1023 10 16 0.00 0.00
5:52 pm 17:52 Mostly Cloudy 49 9.4 34 1.1 56 56 S 7 11 30.22 1024 10 16 0.00 0.00
6:52 pm 18:52 Mostly Cloudy 49 9.4 34 1.1 56 56 S 3 6 30.23 1024 10 16 0.00 0.00
7:52 pm 19:52 Partly Cloudy 49 9.4 36 2.2 61 61 Calm 30.24 1024 10 16 0.00 0.00
8:52 pm 20:52 Partly Cloudy 46 7.8 36 2.2 68 68 Calm 30.25 1025 10 16 0.00 0.00
9:52 pm 21:52 Partly Cloudy 45 7.2 37 2.8 74 74 Calm 30.27 1025 10 16 0.00 0.00
10:52 pm 22:52 Mostly Cloudy 45 7.2 37 2.8 74 74 Calm 30.26 1025 10 16 0.00 0.00
11:52 pm 23:52 Partly Cloudy 42 5.6 35 1.7 76 76 NNE 3 6 30.27 1025 10 16 0.00 0.00

Powered by AerisWeather